This demonstration page uses our WeatherBlox Daily Observations layout. Learn more.

Left ArrowRight Arrow

38.80484, -77.04692

Hourly Observations for September 6, 2020

Temp ( °F °C ) Dew Point ( °F °C ) Humidity (%) Winds ( mph kmh ) Pressure ( in mb ) Visibility ( mi km ) Precip ( " mm )
12:52 am 00:52 Clear 68 20 59 15 73 73 S 3 6 30.22 1023 10 16 N/A
1:52 am 01:52 Clear 67 19.4 57 13.9 71 71 SSW 5 7 30.21 1023 10 16 N/A
2:52 am 02:52 Clear 66 18.9 58 14.4 75 75 N N/A 30.20 1023 10 16 N/A
3:52 am 03:52 Clear 65 18.3 58 14.4 78 78 SSW 5 7 30.20 1023 10 16 N/A
4:52 am 04:52 Clear 64 17.8 58 14.4 81 81 SSW 6 9 30.19 1023 10 16 N/A
5:52 am 05:52 Clear 64 17.8 57 13.9 78 78 N N/A 30.20 1023 10 16 N/A
6:52 am 06:52 Partly Cloudy 63 17.2 58 14.4 84 84 N N/A 30.21 1023 10 16 N/A
7:52 am 07:52 Partly Cloudy 67 19.4 60 15.6 79 79 N N/A 30.21 1023 10 16 N/A
8:52 am 08:52 Sunny 70 21.1 63 17.2 79 79 S 3 6 30.19 1022 10 16 N/A
9:52 am 09:52 Sunny 74 23.3 65 18.3 74 74 S 7 11 30.18 1022 10 16 N/A
10:52 am 10:52 Sunny 78 25.6 63 17.2 60 60 SE 5 7 30.24 1024 10 16 N/A
11:52 am 11:52 Sunny 81 27.2 59 15 47 47 SE 6 9 30.23 1024 10 16 N/A
12:52 pm 12:52 Mostly Sunny 81 27.2 60 15.6 49 49 S 7 11 30.20 1023 10 16 N/A
1:52 pm 13:52 Mostly Sunny 82 27.8 60 15.6 47 47 S 6 9 30.18 1022 10 16 N/A
2:52 pm 14:52 Partly Cloudy 82 27.8 58 14.4 44 44 SSE 5 7 30.17 1022 10 16 N/A
3:52 pm 15:52 Mostly Sunny 83 28.3 58 14.4 43 43 S 10 17 30.16 1021 10 16 N/A
4:52 pm 16:52 Mostly Sunny 82 27.8 60 15.6 47 47 S 9 15 30.15 1021 10 16 N/A
5:52 pm 17:52 Mostly Sunny 80 26.7 62 16.7 54 54 S 12 19 30.14 1021 10 16 N/A
6:52 pm 18:52 Mostly Sunny 77 25 59 15 54 54 S 12 19 30.13 1020 10 16 N/A
7:52 pm 19:52 Mostly Clear 76 24.4 62 16.7 62 62 S 12 19 30.12 1020 10 16 N/A
8:52 pm 20:52 Mostly Clear 74 23.3 63 17.2 69 69 S 10 17 30.14 1021 10 16 N/A
9:52 pm 21:52 Mostly Clear 73 22.8 63 17.2 71 71 S 8 13 30.14 1021 10 16 N/A
10:52 pm 22:52 Mostly Cloudy 70 21.1 63 17.2 79 79 SSW 6 9 30.13 1020 10 16 N/A
11:52 pm 23:52 Mostly Cloudy 71 21.7 61 16.1 71 71 S 8 13 30.13 1020 10 16 N/A

Powered by AerisWeather